Year,Month,Day,Hour,Minute,Value (Times are PST for temperature in C)
2009,07,27,00,00,19.30
2009,07,27,00,01,19.30
2009,07,27,00,02,19.30
2009,07,27,00,03,19.30
2009,07,27,00,04,19.30
2009,07,27,00,05,19.20
2009,07,27,00,06,19.20
2009,07,27,00,07,19.20
2009,07,27,00,08,19.20
2009,07,27,00,09,19.20
2009,07,27,00,10,19.10
2009,07,27,00,11,19.10
2009,07,27,00,12,19.10
2009,07,27,00,13,19.10
2009,07,27,00,14,19.10
2009,07,27,00,15,19.10
2009,07,27,00,16,19.10
2009,07,27,00,17,19.10
2009,07,27,00,18,19.10
2009,07,27,00,19,19.00
2009,07,27,00,20,18.90
2009,07,27,00,21,18.90
2009,07,27,00,22,18.90
2009,07,27,00,23,18.90
2009,07,27,00,24,18.90
2009,07,27,00,25,18.90
2009,07,27,00,26,18.90
2009,07,27,00,27,18.90
2009,07,27,00,28,18.90
2009,07,27,00,29,18.90
2009,07,27,00,30,18.90
2009,07,27,00,31,18.90
2009,07,27,00,32,18.90
2009,07,27,00,33,18.90
2009,07,27,00,34,18.90
2009,07,27,00,35,18.90
2009,07,27,00,36,18.90
2009,07,27,00,37,18.90
2009,07,27,00,38,18.90
2009,07,27,00,39,18.90
2009,07,27,00,40,18.90
2009,07,27,00,41,18.80
2009,07,27,00,42,18.80
2009,07,27,00,43,18.80
2009,07,27,00,44,18.80
2009,07,27,00,45,18.80
2009,07,27,00,46,18.80
2009,07,27,00,47,18.70
2009,07,27,00,48,18.70
2009,07,27,00,49,18.70
2009,07,27,00,50,18.70
2009,07,27,00,51,18.70
2009,07,27,00,52,18.70
2009,07,27,00,53,18.70
2009,07,27,00,54,18.70
2009,07,27,00,55,18.60
2009,07,27,00,56,18.60
2009,07,27,00,57,18.60
2009,07,27,00,58,18.60
2009,07,27,00,59,18.60
2009,07,27,01,00,18.50
2009,07,27,01,01,18.50
2009,07,27,01,02,18.50
2009,07,27,01,03,18.50
2009,07,27,01,04,18.50
2009,07,27,01,05,18.40
2009,07,27,01,06,18.40
2009,07,27,01,07,18.40
2009,07,27,01,08,18.40
2009,07,27,01,09,18.40
2009,07,27,01,10,18.40
2009,07,27,01,11,18.40
2009,07,27,01,12,18.40
2009,07,27,01,13,18.40
2009,07,27,01,14,18.30
2009,07,27,01,15,18.30
2009,07,27,01,16,18.30
2009,07,27,01,17,18.30
2009,07,27,01,18,18.30
2009,07,27,01,19,18.30
2009,07,27,01,20,18.30
2009,07,27,01,21,18.20
2009,07,27,01,22,18.20
2009,07,27,01,23,18.20
2009,07,27,01,24,18.20
2009,07,27,01,25,18.20
2009,07,27,01,26,18.20
2009,07,27,01,27,18.20
2009,07,27,01,28,18.20
2009,07,27,01,29,18.20
2009,07,27,01,30,18.10
2009,07,27,01,31,18.10
2009,07,27,01,32,18.10
2009,07,27,01,33,18.00
2009,07,27,01,34,17.90
2009,07,27,01,35,17.90
2009,07,27,01,36,17.90
2009,07,27,01,37,17.90
2009,07,27,01,38,17.90
2009,07,27,01,39,17.90
2009,07,27,01,40,17.90
2009,07,27,01,41,17.90
2009,07,27,01,42,17.90
2009,07,27,01,43,17.90
2009,07,27,01,44,17.90
2009,07,27,01,45,17.90
2009,07,27,01,46,17.90
2009,07,27,01,47,17.90
2009,07,27,01,48,17.90
2009,07,27,01,49,17.90
2009,07,27,01,50,17.90
2009,07,27,01,51,17.90
2009,07,27,01,52,17.80
2009,07,27,01,53,17.80
2009,07,27,01,54,17.80
2009,07,27,01,55,17.80
2009,07,27,01,56,17.80
2009,07,27,01,57,17.80
2009,07,27,01,58,17.70
2009,07,27,01,59,17.70
2009,07,27,02,00,17.70
2009,07,27,02,01,17.70
2009,07,27,02,02,17.70
2009,07,27,02,03,17.70
2009,07,27,02,04,17.60
2009,07,27,02,05,17.60
2009,07,27,02,06,17.60
2009,07,27,02,07,17.60
2009,07,27,02,08,17.60
2009,07,27,02,09,17.60
2009,07,27,02,10,17.50
2009,07,27,02,11,17.50
2009,07,27,02,12,17.50
2009,07,27,02,13,17.50
2009,07,27,02,14,17.50
2009,07,27,02,15,17.50
2009,07,27,02,16,17.50
2009,07,27,02,17,17.50
2009,07,27,02,18,17.50
2009,07,27,02,19,17.50
2009,07,27,02,20,17.50
2009,07,27,02,21,17.50
2009,07,27,02,22,17.50
2009,07,27,02,23,17.50
2009,07,27,02,24,17.50
2009,07,27,02,25,17.50
2009,07,27,02,26,17.40
2009,07,27,02,27,17.40
2009,07,27,02,28,17.40
2009,07,27,02,29,17.40
2009,07,27,02,30,17.40
2009,07,27,02,31,17.40
2009,07,27,02,32,17.40
2009,07,27,02,33,17.30
2009,07,27,02,34,17.30
2009,07,27,02,35,17.30
2009,07,27,02,36,17.30
2009,07,27,02,37,17.30
2009,07,27,02,38,17.30
2009,07,27,02,39,17.30
2009,07,27,02,40,17.30
2009,07,27,02,41,17.30
2009,07,27,02,42,17.30
2009,07,27,02,43,17.30
2009,07,27,02,44,17.30
2009,07,27,02,45,17.30
2009,07,27,02,46,17.30
2009,07,27,02,47,17.30
2009,07,27,02,48,17.30
2009,07,27,02,49,17.20
2009,07,27,02,50,17.20
2009,07,27,02,51,17.20
2009,07,27,02,52,17.20
2009,07,27,02,53,17.20
2009,07,27,02,54,17.20
2009,07,27,02,55,17.20
2009,07,27,02,56,17.20
2009,07,27,02,57,17.20
2009,07,27,02,58,17.20
2009,07,27,02,59,17.20
2009,07,27,03,00,17.20
2009,07,27,03,01,17.20
2009,07,27,03,02,17.20
2009,07,27,03,03,17.20
2009,07,27,03,04,17.20
2009,07,27,03,05,17.20
2009,07,27,03,06,17.20
2009,07,27,03,07,17.20
2009,07,27,03,08,17.10
2009,07,27,03,09,17.10
2009,07,27,03,10,17.10
2009,07,27,03,11,17.10
2009,07,27,03,12,17.10
2009,07,27,03,13,17.10
2009,07,27,03,14,17.10
2009,07,27,03,15,17.10
2009,07,27,03,16,17.10
2009,07,27,03,17,17.10
2009,07,27,03,18,17.10
2009,07,27,03,19,17.10
2009,07,27,03,20,17.10
2009,07,27,03,21,17.00
2009,07,27,03,22,17.00
2009,07,27,03,23,17.00
2009,07,27,03,24,17.00
2009,07,27,03,25,17.00
2009,07,27,03,26,17.00
2009,07,27,03,27,17.00
2009,07,27,03,28,17.00
2009,07,27,03,29,17.00
2009,07,27,03,30,17.00
2009,07,27,03,31,17.00
2009,07,27,03,32,17.00
2009,07,27,03,33,17.00
2009,07,27,03,34,17.00
2009,07,27,03,35,17.00
2009,07,27,03,36,17.00
2009,07,27,03,37,17.00
2009,07,27,03,38,17.00
2009,07,27,03,39,16.90
2009,07,27,03,40,16.90
2009,07,27,03,41,16.90
2009,07,27,03,42,16.90
2009,07,27,03,43,16.90
2009,07,27,03,44,16.90
2009,07,27,03,45,16.90
2009,07,27,03,46,16.90
2009,07,27,03,47,16.90
2009,07,27,03,48,16.90
2009,07,27,03,49,16.90
2009,07,27,03,50,16.90
2009,07,27,03,51,16.90
2009,07,27,03,52,16.90
2009,07,27,03,53,16.90
2009,07,27,03,54,16.90
2009,07,27,03,55,16.90
2009,07,27,03,56,16.90
2009,07,27,03,57,16.90
2009,07,27,03,58,16.90
2009,07,27,03,59,16.80
2009,07,27,04,00,16.80
2009,07,27,04,01,16.80
2009,07,27,04,02,16.80
2009,07,27,04,03,16.80
2009,07,27,04,05,16.80
2009,07,27,04,06,16.80
2009,07,27,04,07,16.80
2009,07,27,04,08,16.80
2009,07,27,04,09,16.80
2009,07,27,04,10,16.70
2009,07,27,04,11,16.70
2009,07,27,04,12,16.70
2009,07,27,04,13,16.70
2009,07,27,04,14,16.70
2009,07,27,04,15,16.70
2009,07,27,04,16,16.70
2009,07,27,04,17,16.70
2009,07,27,04,18,16.60
2009,07,27,04,19,16.60
2009,07,27,04,20,16.60
2009,07,27,04,21,16.60
2009,07,27,04,22,16.50
2009,07,27,04,23,16.40
2009,07,27,04,24,16.40
2009,07,27,04,25,16.40
2009,07,27,04,26,16.40
2009,07,27,04,27,16.40
2009,07,27,04,28,16.30
2009,07,27,04,29,16.30
2009,07,27,04,30,16.30
2009,07,27,04,31,16.30
2009,07,27,04,32,16.20
2009,07,27,04,33,16.20
2009,07,27,04,34,16.20
2009,07,27,04,35,16.20
2009,07,27,04,36,16.20
2009,07,27,04,37,16.20
2009,07,27,04,38,16.20
2009,07,27,04,39,16.20
2009,07,27,04,40,16.10
2009,07,27,04,41,16.10
2009,07,27,04,42,16.10
2009,07,27,04,43,16.10
2009,07,27,04,44,16.10
2009,07,27,04,45,16.10
2009,07,27,04,46,16.10
2009,07,27,04,47,16.10
2009,07,27,04,48,16.10
2009,07,27,04,49,16.10
2009,07,27,04,50,16.10
2009,07,27,04,51,16.10
2009,07,27,04,52,16.00
2009,07,27,04,53,15.90
2009,07,27,04,54,15.90
2009,07,27,04,55,15.90
2009,07,27,04,56,15.90
2009,07,27,04,57,15.90
2009,07,27,04,58,15.90
2009,07,27,04,59,15.90
2009,07,27,05,00,15.80
2009,07,27,05,01,15.80
2009,07,27,05,02,15.80
2009,07,27,05,03,15.80
2009,07,27,05,04,15.80
2009,07,27,05,05,15.80
2009,07,27,05,06,15.80
2009,07,27,05,07,15.80
2009,07,27,05,08,15.80
2009,07,27,05,09,15.80
2009,07,27,05,10,15.80
2009,07,27,05,11,15.80
2009,07,27,05,12,15.80
2009,07,27,05,13,15.80
2009,07,27,05,14,15.80
2009,07,27,05,15,15.80
2009,07,27,05,16,15.80
2009,07,27,05,17,15.80
2009,07,27,05,18,15.80
2009,07,27,05,19,15.70
2009,07,27,05,20,15.70
2009,07,27,05,21,15.70
2009,07,27,05,22,15.70
2009,07,27,05,23,15.70
2009,07,27,05,24,15.70
2009,07,27,05,25,15.70
2009,07,27,05,26,15.70
2009,07,27,05,27,15.70
2009,07,27,05,28,15.70
2009,07,27,05,29,15.70
2009,07,27,05,30,15.70
2009,07,27,05,31,15.70
2009,07,27,05,32,15.70
2009,07,27,05,33,15.70
2009,07,27,05,34,15.70
2009,07,27,05,35,15.70
2009,07,27,05,36,15.70
2009,07,27,05,37,15.70
2009,07,27,05,38,15.70
2009,07,27,05,39,15.60
2009,07,27,05,40,15.60
2009,07,27,05,41,15.60
2009,07,27,05,42,15.60
2009,07,27,05,43,15.60
2009,07,27,05,44,15.60
2009,07,27,05,45,15.60
2009,07,27,05,46,15.60
2009,07,27,05,47,15.60
2009,07,27,05,48,15.50
2009,07,27,05,49,15.50
2009,07,27,05,50,15.50
2009,07,27,05,51,15.60
2009,07,27,05,52,15.60
2009,07,27,05,53,15.60
2009,07,27,05,54,15.60
2009,07,27,05,55,15.50
2009,07,27,05,56,15.50
2009,07,27,05,57,15.60
2009,07,27,05,58,15.60
2009,07,27,05,59,15.60
2009,07,27,06,00,15.60
2009,07,27,06,01,15.60
2009,07,27,06,02,15.60
2009,07,27,06,03,15.60
2009,07,27,06,04,15.60
2009,07,27,06,05,15.50
2009,07,27,06,06,15.50
2009,07,27,06,07,15.50
2009,07,27,06,08,15.50
2009,07,27,06,09,15.50
2009,07,27,06,10,15.50
2009,07,27,06,11,15.50
2009,07,27,06,12,15.50
2009,07,27,06,13,15.50
2009,07,27,06,14,15.60
2009,07,27,06,15,15.60
2009,07,27,06,16,15.60
2009,07,27,06,17,15.60
2009,07,27,06,18,15.60
2009,07,27,06,19,15.60
2009,07,27,06,20,15.60
2009,07,27,06,21,15.60
2009,07,27,06,22,15.60
2009,07,27,06,23,15.70
2009,07,27,06,24,15.70
2009,07,27,06,25,15.70
2009,07,27,06,26,15.70
2009,07,27,06,27,15.70
2009,07,27,06,28,15.70
2009,07,27,06,29,15.70
2009,07,27,06,30,15.70
2009,07,27,06,31,15.70
2009,07,27,06,32,15.70
2009,07,27,06,33,15.80
2009,07,27,06,34,15.80
2009,07,27,06,35,15.80
2009,07,27,06,36,15.80
2009,07,27,06,37,15.80
2009,07,27,06,38,15.80
2009,07,27,06,39,15.80
2009,07,27,06,40,15.80
2009,07,27,06,41,15.80
2009,07,27,06,42,15.80
2009,07,27,06,43,15.80
2009,07,27,06,44,15.80
2009,07,27,06,45,15.90
2009,07,27,06,46,15.90
2009,07,27,06,47,16.00
2009,07,27,06,48,16.10
2009,07,27,06,49,16.10
2009,07,27,06,50,16.20
2009,07,27,06,51,16.20
2009,07,27,06,52,16.30
2009,07,27,06,53,16.40
2009,07,27,06,54,16.40
2009,07,27,06,55,16.50
2009,07,27,06,56,16.60
2009,07,27,06,57,16.70
2009,07,27,06,58,16.80
2009,07,27,06,59,16.90
2009,07,27,07,00,16.90
2009,07,27,07,01,17.00
2009,07,27,07,02,17.10
2009,07,27,07,03,17.20
2009,07,27,07,04,17.30
2009,07,27,07,05,17.30
2009,07,27,07,06,17.30
2009,07,27,07,07,17.40
2009,07,27,07,08,17.40
2009,07,27,07,09,17.40
2009,07,27,07,10,17.50
2009,07,27,07,11,17.50
2009,07,27,07,12,17.50
2009,07,27,07,13,17.60
2009,07,27,07,14,17.60
2009,07,27,07,15,17.70
2009,07,27,07,16,17.80
2009,07,27,07,17,17.80
2009,07,27,07,18,17.90
2009,07,27,07,19,18.00
2009,07,27,07,20,18.10
2009,07,27,07,21,18.20
2009,07,27,07,22,18.30
2009,07,27,07,23,18.50
2009,07,27,07,24,18.50
2009,07,27,07,25,18.60
2009,07,27,07,26,18.70
2009,07,27,07,27,18.80
2009,07,27,07,28,18.90
2009,07,27,07,29,19.00
2009,07,27,07,30,19.10
2009,07,27,07,31,19.10
2009,07,27,07,32,19.20
2009,07,27,07,33,19.30
2009,07,27,07,34,19.40
2009,07,27,07,35,19.40
2009,07,27,07,36,19.50
2009,07,27,07,37,19.60
2009,07,27,07,38,19.70
2009,07,27,07,39,19.70
2009,07,27,07,40,19.80
2009,07,27,07,41,19.90
2009,07,27,07,42,19.90
2009,07,27,07,43,20.00
2009,07,27,07,44,20.10
2009,07,27,07,45,20.20
2009,07,27,07,46,20.20
2009,07,27,07,47,20.20
2009,07,27,07,48,20.30
2009,07,27,07,49,20.30
2009,07,27,07,50,20.40
2009,07,27,07,51,20.40
2009,07,27,07,52,20.50
2009,07,27,07,53,20.50
2009,07,27,07,54,20.50
2009,07,27,07,55,20.60
2009,07,27,07,56,20.70
2009,07,27,07,57,20.70
2009,07,27,07,58,20.80
2009,07,27,07,59,21.00
2009,07,27,08,00,21.00
2009,07,27,08,01,21.20
2009,07,27,08,02,21.30
2009,07,27,08,03,21.40
2009,07,27,08,04,21.50
2009,07,27,08,05,21.60
2009,07,27,08,06,21.70
2009,07,27,08,07,21.90
2009,07,27,08,08,22.00
2009,07,27,08,09,22.10
2009,07,27,08,10,22.20
2009,07,27,08,11,22.30
2009,07,27,08,12,22.40
2009,07,27,08,13,22.50
2009,07,27,08,14,22.60
2009,07,27,08,15,22.80
2009,07,27,08,16,22.90
2009,07,27,08,17,23.00
2009,07,27,08,18,23.20
2009,07,27,08,19,23.30
2009,07,27,08,20,23.40
2009,07,27,08,21,23.60
2009,07,27,08,22,23.70
2009,07,27,08,23,23.70
2009,07,27,08,24,23.80
2009,07,27,08,25,23.80
2009,07,27,08,26,23.90
2009,07,27,08,27,24.00
2009,07,27,08,28,24.10
2009,07,27,08,29,24.10
2009,07,27,08,30,24.20
2009,07,27,08,31,24.20
2009,07,27,08,32,24.30
2009,07,27,08,33,24.30
2009,07,27,08,34,24.40
2009,07,27,08,35,24.40
2009,07,27,08,36,24.50
2009,07,27,08,37,24.50
2009,07,27,08,38,24.60
2009,07,27,08,39,24.60
2009,07,27,08,40,24.70
2009,07,27,08,41,24.70
2009,07,27,08,42,24.80
2009,07,27,08,43,24.80
2009,07,27,08,44,24.80
2009,07,27,08,45,24.90
2009,07,27,08,46,25.00
2009,07,27,08,47,25.00
2009,07,27,08,48,25.10
2009,07,27,08,49,25.10
2009,07,27,08,50,25.20
2009,07,27,08,51,25.20
2009,07,27,08,52,25.20
2009,07,27,08,53,25.20
2009,07,27,08,54,25.30
2009,07,27,08,55,25.30
2009,07,27,08,56,25.30
2009,07,27,08,57,25.40
2009,07,27,08,58,25.40
2009,07,27,08,59,25.40
2009,07,27,09,00,25.50
2009,07,27,09,01,25.50
2009,07,27,09,02,25.50
2009,07,27,09,03,25.50
2009,07,27,09,04,25.50
2009,07,27,09,05,25.50
2009,07,27,09,06,25.60
2009,07,27,09,07,25.60
2009,07,27,09,08,25.60
2009,07,27,09,09,25.60
2009,07,27,09,10,25.60
2009,07,27,09,11,25.60
2009,07,27,09,12,25.70
2009,07,27,09,13,25.80
2009,07,27,09,14,25.80
2009,07,27,09,15,25.90
2009,07,27,09,16,26.00
2009,07,27,09,17,26.10
2009,07,27,09,18,26.20
2009,07,27,09,19,26.30
2009,07,27,09,20,26.30
2009,07,27,09,21,26.30
2009,07,27,09,22,26.40
2009,07,27,09,23,26.50
2009,07,27,09,24,26.60
2009,07,27,09,25,26.60
2009,07,27,09,26,26.60
2009,07,27,09,27,26.60
2009,07,27,09,28,26.50
2009,07,27,09,29,26.40
2009,07,27,09,30,26.40
2009,07,27,09,31,26.30
2009,07,27,09,32,26.40
2009,07,27,09,33,26.40
2009,07,27,09,34,26.50
2009,07,27,09,35,26.60
2009,07,27,09,36,26.60
2009,07,27,09,37,26.60
2009,07,27,09,38,26.60
2009,07,27,09,39,26.60
2009,07,27,09,40,26.70
2009,07,27,09,41,26.80
2009,07,27,09,42,26.80
2009,07,27,09,43,26.90
2009,07,27,09,44,27.10
2009,07,27,09,45,27.20
2009,07,27,09,46,27.20
2009,07,27,09,47,27.30
2009,07,27,09,48,27.30
2009,07,27,09,49,27.30
2009,07,27,09,50,27.30
2009,07,27,09,51,27.40
2009,07,27,09,52,27.40
2009,07,27,09,53,27.40
2009,07,27,09,54,27.40
2009,07,27,09,55,27.40
2009,07,27,09,56,27.40
2009,07,27,09,57,27.50
2009,07,27,09,58,27.60
2009,07,27,09,59,27.70
2009,07,27,10,00,27.80
2009,07,27,10,01,27.90
2009,07,27,10,02,28.00
2009,07,27,10,03,28.10
2009,07,27,10,04,28.10
2009,07,27,10,05,28.20
2009,07,27,10,06,28.30
2009,07,27,10,07,28.30
2009,07,27,10,08,28.40
2009,07,27,10,09,28.60
2009,07,27,10,10,28.60
2009,07,27,10,11,28.70
2009,07,27,10,12,28.80
2009,07,27,10,13,28.80
2009,07,27,10,14,28.80
2009,07,27,10,15,28.90
2009,07,27,10,16,28.90
2009,07,27,10,17,28.90
2009,07,27,10,18,28.90
2009,07,27,10,19,28.90
2009,07,27,10,20,28.90
2009,07,27,10,21,28.90
2009,07,27,10,22,28.90
2009,07,27,10,23,28.90
2009,07,27,10,24,28.90
2009,07,27,10,25,28.90
2009,07,27,10,26,28.90
2009,07,27,10,27,28.80
2009,07,27,10,28,28.70
2009,07,27,10,29,28.60
2009,07,27,10,30,28.60
2009,07,27,10,31,28.60
2009,07,27,10,32,28.40
2009,07,27,10,33,28.40
2009,07,27,10,34,28.50
2009,07,27,10,35,28.50
2009,07,27,10,36,28.50
2009,07,27,10,37,28.60
2009,07,27,10,38,28.60
2009,07,27,10,39,28.60
2009,07,27,10,40,28.70
2009,07,27,10,41,28.70
2009,07,27,10,42,28.60
2009,07,27,10,43,28.50
2009,07,27,10,44,28.40
2009,07,27,10,45,28.40
2009,07,27,10,46,28.40
2009,07,27,10,47,28.60
2009,07,27,10,48,28.60
2009,07,27,10,49,28.70
2009,07,27,10,50,28.60
2009,07,27,10,51,28.60
2009,07,27,10,52,28.40
2009,07,27,10,53,28.40
2009,07,27,10,54,28.50
2009,07,27,10,55,28.60
2009,07,27,10,56,28.60
2009,07,27,10,57,28.60
2009,07,27,10,58,28.60
2009,07,27,10,59,28.70
2009,07,27,11,00,28.70
2009,07,27,11,01,28.70
2009,07,27,11,02,28.70
2009,07,27,11,03,28.60
2009,07,27,11,04,28.40
2009,07,27,11,05,28.20
2009,07,27,11,06,28.00
2009,07,27,11,07,28.00
2009,07,27,11,08,28.00
2009,07,27,11,09,28.10
2009,07,27,11,10,28.10
2009,07,27,11,11,28.20
2009,07,27,11,12,28.20
2009,07,27,11,13,28.30
2009,07,27,11,14,28.40
2009,07,27,11,15,28.40
2009,07,27,11,16,28.40
2009,07,27,11,17,28.40
2009,07,27,11,18,28.40
2009,07,27,11,19,28.30
2009,07,27,11,20,28.30
2009,07,27,11,21,28.30
2009,07,27,11,22,28.30
2009,07,27,11,23,28.30
2009,07,27,11,24,28.30
2009,07,27,11,25,28.40
2009,07,27,11,26,28.40
2009,07,27,11,27,28.50
2009,07,27,11,28,28.60
2009,07,27,11,29,28.70
2009,07,27,11,30,28.80
2009,07,27,11,31,28.90
2009,07,27,11,32,28.90
2009,07,27,11,33,28.90
2009,07,27,11,34,29.00
2009,07,27,11,35,29.10
2009,07,27,11,36,29.20
2009,07,27,11,37,29.30
2009,07,27,11,38,29.30
2009,07,27,11,39,29.20
2009,07,27,11,40,29.10
2009,07,27,11,41,29.00
2009,07,27,11,42,28.90
2009,07,27,11,43,28.80
2009,07,27,11,44,28.60
2009,07,27,11,45,28.40
2009,07,27,11,46,28.40
2009,07,27,11,47,28.60
2009,07,27,11,48,28.60
2009,07,27,11,49,28.70
2009,07,27,11,50,28.90
2009,07,27,11,51,28.90
2009,07,27,11,52,28.90
2009,07,27,11,53,28.90
2009,07,27,11,54,28.90
2009,07,27,11,55,28.90
2009,07,27,11,56,28.90
2009,07,27,11,57,28.90
2009,07,27,11,58,28.90
2009,07,27,11,59,28.90
2009,07,27,12,00,28.90
2009,07,27,12,01,28.90
2009,07,27,12,02,28.90
2009,07,27,12,03,29.00
2009,07,27,12,04,29.10
2009,07,27,12,05,29.20
2009,07,27,12,06,29.20
2009,07,27,12,07,29.20
2009,07,27,12,08,29.30
2009,07,27,12,09,29.40
2009,07,27,12,10,29.50
2009,07,27,12,11,29.60
2009,07,27,12,12,29.70
2009,07,27,12,13,29.80
2009,07,27,12,14,29.90
2009,07,27,12,15,30.10
2009,07,27,12,16,30.10
2009,07,27,12,17,30.20
2009,07,27,12,18,30.10
2009,07,27,12,19,30.10
2009,07,27,12,20,30.10
2009,07,27,12,21,30.10
2009,07,27,12,22,30.10
2009,07,27,12,23,30.20
2009,07,27,12,24,30.20
2009,07,27,12,25,30.20
2009,07,27,12,26,30.30
2009,07,27,12,27,30.40
2009,07,27,12,28,30.30
2009,07,27,12,29,30.30
2009,07,27,12,30,30.30
2009,07,27,12,31,30.30
2009,07,27,12,32,30.30
2009,07,27,12,33,30.40
2009,07,27,12,34,30.30
2009,07,27,12,35,30.30
2009,07,27,12,36,30.30
2009,07,27,12,37,30.30
2009,07,27,12,38,30.30
2009,07,27,12,39,30.40
2009,07,27,12,40,30.40
2009,07,27,12,41,30.60
2009,07,27,12,42,30.60
2009,07,27,12,43,30.70
2009,07,27,12,44,30.70
2009,07,27,12,45,30.80
2009,07,27,12,46,30.80
2009,07,27,12,47,30.80
2009,07,27,12,48,30.80
2009,07,27,12,49,30.80
2009,07,27,12,50,30.80
2009,07,27,12,51,30.70
2009,07,27,12,52,30.70
2009,07,27,12,53,30.70
2009,07,27,12,54,30.70
2009,07,27,12,55,30.70
2009,07,27,12,56,30.80
2009,07,27,12,57,30.80
2009,07,27,12,58,30.90
2009,07,27,12,59,30.90
2009,07,27,13,00,30.90
2009,07,27,13,01,30.80
2009,07,27,13,02,30.70
2009,07,27,13,03,30.40
2009,07,27,13,04,30.30
2009,07,27,13,05,30.20
2009,07,27,13,06,30.30
2009,07,27,13,07,30.30
2009,07,27,13,08,30.40
2009,07,27,13,09,30.50
2009,07,27,13,10,30.60
2009,07,27,13,11,30.70
2009,07,27,13,12,30.70
2009,07,27,13,13,30.70
2009,07,27,13,14,30.60
2009,07,27,13,15,30.60
2009,07,27,13,16,30.50
2009,07,27,13,17,30.50
2009,07,27,13,18,30.60
2009,07,27,13,19,30.60
2009,07,27,13,20,30.70
2009,07,27,13,21,30.80
2009,07,27,13,22,30.90
2009,07,27,13,23,31.00
2009,07,27,13,24,31.10
2009,07,27,13,25,31.10
2009,07,27,13,26,31.10
2009,07,27,13,27,31.20
2009,07,27,13,28,31.20
2009,07,27,13,29,31.20
2009,07,27,13,30,31.20
2009,07,27,13,31,31.30
2009,07,27,13,32,31.30
2009,07,27,13,33,31.30
2009,07,27,13,34,31.30
2009,07,27,13,35,31.30
2009,07,27,13,36,31.40
2009,07,27,13,37,31.40
2009,07,27,13,38,31.40
2009,07,27,13,39,31.50
2009,07,27,13,40,31.60
2009,07,27,13,41,31.70
2009,07,27,13,42,31.70
2009,07,27,13,43,31.70
2009,07,27,13,44,31.70
2009,07,27,13,45,31.80
2009,07,27,13,46,31.80
2009,07,27,13,47,31.70
2009,07,27,13,48,31.70
2009,07,27,13,49,31.60
2009,07,27,13,50,31.50
2009,07,27,13,51,31.40
2009,07,27,13,52,31.30
2009,07,27,13,53,31.20
2009,07,27,13,54,31.20
2009,07,27,13,55,31.20
2009,07,27,13,56,31.20
2009,07,27,13,57,31.10
2009,07,27,13,58,31.00
2009,07,27,13,59,30.90
2009,07,27,14,00,30.80
2009,07,27,14,01,30.70
2009,07,27,14,02,30.60
2009,07,27,14,03,30.60
2009,07,27,14,04,30.60
2009,07,27,14,05,30.70
2009,07,27,14,06,30.80
2009,07,27,14,07,30.80
2009,07,27,14,08,30.90
2009,07,27,14,09,30.90
2009,07,27,14,10,30.90
2009,07,27,14,11,30.90
2009,07,27,14,12,30.90
2009,07,27,14,13,30.90
2009,07,27,14,14,30.80
2009,07,27,14,15,30.70
2009,07,27,14,16,30.60
2009,07,27,14,17,30.60
2009,07,27,14,18,30.60
2009,07,27,14,19,30.70
2009,07,27,14,20,30.70
2009,07,27,14,21,30.80
2009,07,27,14,22,31.00
2009,07,27,14,23,31.20
2009,07,27,14,24,31.40
2009,07,27,14,25,31.50
2009,07,27,14,26,31.70
2009,07,27,14,27,31.80
2009,07,27,14,28,31.80
2009,07,27,14,29,31.80
2009,07,27,14,30,31.80
2009,07,27,14,31,31.80
2009,07,27,14,32,31.70
2009,07,27,14,33,31.70
2009,07,27,14,34,31.60
2009,07,27,14,35,31.60
2009,07,27,14,36,31.50
2009,07,27,14,37,31.40
2009,07,27,14,38,31.40
2009,07,27,14,39,31.40
2009,07,27,14,40,31.40
2009,07,27,14,41,31.50
2009,07,27,14,42,31.60
2009,07,27,14,43,31.80
2009,07,27,14,44,31.80
2009,07,27,14,45,31.70
2009,07,27,14,46,31.60
2009,07,27,14,47,31.40
2009,07,27,14,48,31.30
2009,07,27,14,49,31.30
2009,07,27,14,50,31.30
2009,07,27,14,51,31.30
2009,07,27,14,52,31.40
2009,07,27,14,53,31.50
2009,07,27,14,54,31.60
2009,07,27,14,55,31.80
2009,07,27,14,56,31.90
2009,07,27,14,57,32.00
2009,07,27,14,58,32.10
2009,07,27,14,59,32.00
2009,07,27,15,00,31.90
2009,07,27,15,01,31.90
2009,07,27,15,02,32.00
2009,07,27,15,03,32.10
2009,07,27,15,04,32.10
2009,07,27,15,05,32.10
2009,07,27,15,06,32.10
2009,07,27,15,07,32.10
2009,07,27,15,08,32.10
2009,07,27,15,09,31.90
2009,07,27,15,10,31.90
2009,07,27,15,11,31.90
2009,07,27,15,12,31.90
2009,07,27,15,13,31.90
2009,07,27,15,14,31.90
2009,07,27,15,15,31.80
2009,07,27,15,16,31.80
2009,07,27,15,17,31.80
2009,07,27,15,18,31.90
2009,07,27,15,19,32.00
2009,07,27,15,20,32.10
2009,07,27,15,21,32.20
2009,07,27,15,22,32.20
2009,07,27,15,23,32.20
2009,07,27,15,24,32.20
2009,07,27,15,25,32.20
2009,07,27,15,26,32.10
2009,07,27,15,27,32.10
2009,07,27,15,28,32.20
2009,07,27,15,29,32.20
2009,07,27,15,30,32.10
2009,07,27,15,31,32.00
2009,07,27,15,32,31.90
2009,07,27,15,33,31.90
2009,07,27,15,34,31.90
2009,07,27,15,35,31.90
2009,07,27,15,36,31.90
2009,07,27,15,37,31.80
2009,07,27,15,38,31.60
2009,07,27,15,39,31.60
2009,07,27,15,40,31.60
2009,07,27,15,41,31.60
2009,07,27,15,42,31.60
2009,07,27,15,43,31.60
2009,07,27,15,44,31.60
2009,07,27,15,45,31.60
2009,07,27,15,46,31.60
2009,07,27,15,47,31.60
2009,07,27,15,48,31.70
2009,07,27,15,49,31.80
2009,07,27,15,50,32.00
2009,07,27,15,51,32.10
2009,07,27,15,52,32.30
2009,07,27,15,53,32.40
2009,07,27,15,54,32.50
2009,07,27,15,55,32.70
2009,07,27,15,56,32.80
2009,07,27,15,57,32.70
2009,07,27,15,58,32.60
2009,07,27,15,59,32.50
2009,07,27,16,00,32.50
2009,07,27,16,01,32.50
2009,07,27,16,02,32.60
2009,07,27,16,03,32.50
2009,07,27,16,04,32.50
2009,07,27,16,05,32.40
2009,07,27,16,06,32.20
2009,07,27,16,07,32.20
2009,07,27,16,08,32.20
2009,07,27,16,09,32.20
2009,07,27,16,10,32.20
2009,07,27,16,11,32.20
2009,07,27,16,12,32.20
2009,07,27,16,13,32.20
2009,07,27,16,14,32.20
2009,07,27,16,15,32.20
2009,07,27,16,16,32.20
2009,07,27,16,17,32.10
2009,07,27,16,18,32.10
2009,07,27,16,19,32.10
2009,07,27,16,20,32.00
2009,07,27,16,21,31.90
2009,07,27,16,22,31.90
2009,07,27,16,23,31.90
2009,07,27,16,24,31.80
2009,07,27,16,25,31.70
2009,07,27,16,26,31.60
2009,07,27,16,27,31.60
2009,07,27,16,28,31.60
2009,07,27,16,29,31.60
2009,07,27,16,30,31.50
2009,07,27,16,31,31.40
2009,07,27,16,32,31.40
2009,07,27,16,33,31.40
2009,07,27,16,34,31.40
2009,07,27,16,35,31.40
2009,07,27,16,36,31.40
2009,07,27,16,37,31.30
2009,07,27,16,38,31.20
2009,07,27,16,39,31.20
2009,07,27,16,40,31.20
2009,07,27,16,41,31.20
2009,07,27,16,42,31.10
2009,07,27,16,43,31.10
2009,07,27,16,44,31.20
2009,07,27,16,45,31.30
2009,07,27,16,46,31.40
2009,07,27,16,47,31.50
2009,07,27,16,48,31.60
2009,07,27,16,49,31.70
2009,07,27,16,50,31.70
2009,07,27,16,51,31.70
2009,07,27,16,52,31.80
2009,07,27,16,53,31.80
2009,07,27,16,54,31.80
2009,07,27,16,55,31.80
2009,07,27,16,56,31.90
2009,07,27,16,57,31.90
2009,07,27,16,58,31.90
2009,07,27,16,59,31.90
2009,07,27,17,00,31.90
2009,07,27,17,01,31.90
2009,07,27,17,02,31.90
2009,07,27,17,03,32.00
2009,07,27,17,04,32.10
2009,07,27,17,05,32.20
2009,07,27,17,06,32.20
2009,07,27,17,07,32.30
2009,07,27,17,08,32.20
2009,07,27,17,09,32.30
2009,07,27,17,10,32.30
2009,07,27,17,11,32.30
2009,07,27,17,12,32.20
2009,07,27,17,13,32.20
2009,07,27,17,14,32.20
2009,07,27,17,15,32.30
2009,07,27,17,16,32.40
2009,07,27,17,17,32.40
2009,07,27,17,18,32.50
2009,07,27,17,19,32.60
2009,07,27,17,20,32.70